www.pogodaiklimat.ru

Погода и климат >> Архив погоды >> Австрия >> Шердинг


ПОГОДА в Шердинге

  • Прогноз погоды в Шердинге
  • Монитор погоды в Шердинге

АРХИВ ПОГОДЫ в Шердинге

Время (UTC), дата Ветер
(напр.,м/с)
 
Видим.   Явления Облачность Т
(С)
Тd
(С)
f
(%)
Тe
(С)
Тes
(С)
Комфортность P
(гПа)
Po
(гПа)
Тmin
(С)
Tmax
(С)
R
(мм)
R24
(мм)
S
(см)
19 12.07 штиль 0 н/о н/о +17.8 +14.5 81 +18 +18 1011.2 975.1
20 12.07 штиль 0 н/о н/о +16.3 +14.5 89 +16 +16 1011.9 975.5
21 12.07 С 1 н/о н/о +15.3 +14.0 92 +16 +16 1011.8 975.3
22 12.07 СВ 1 н/о н/о +15.4 +13.9 91 +16 +16 1011.8 975.3
23 12.07 З 1 н/о осадки н/о +15.2 +14.1 93 +16 +16 1011.9 975.4 0.2
00 13.07 З 1 н/о ливневой дождь {осадки} н/о +15.5 +13.5 88 +16 +16 1012.3 975.8 2
01 13.07 З 1 н/о ливневой дождь н/о +14.9 +13.3 90 +15 +15 1012.4 975.8 2
02 13.07 СЗ 1 н/о ливневой дождь н/о +14.8 +13.6 93 +15 +15 1012.2 975.6 0.2
03 13.07 штиль 0 н/о {ливн. осадки} н/о +15.1 +13.9 93 +15 +15 1012.1 975.6 2
04 13.07 З 1 н/о осадки н/о +14.6 +13.4 93 +15 +15 1012.3 975.7 2
05 13.07 ЮЗ 1 н/о в посл. час осадки н/о +14.6 +13.4 93 +15 +15 1012.6 976.0 2
06 13.07 З 1 н/о {ливн. осадки} н/о +14.5 +12.4 87 +15 +15 1013.3 976.6 +14.5 +20.3 7
07 13.07 З 1 н/о осадки н/о +14.5 +13.2 92 +15 +15 1014.1 977.4 2
08 13.07 З 1 н/о осадки н/о +14.9 +13.5 91 +15 +15 1014.3 977.7 3
09 13.07 З 2 н/о осадки н/о +15.2 +13.6 90 +15 +15 1014.5 977.9 5
10 13.07 З 2 н/о в посл. час осадки н/о +16.0 +13.6 86 +16 +16 1014.5 978.0 0.3
11 13.07 З 2 н/о н/о +16.7 +13.4 81 +17 +17 1014.6 978.2
12 13.07 СЗ 2 н/о осадки н/о +16.9 +13.7 81 +17 +17 1014.6 978.2 6
14 13.07 З 1 н/о н/о +20.0 +13.2 65 +23 +23 комфорт 1013.8 977.8
15 13.07 З 2 н/о {осадки} н/о +18.6 +12.8 69 +20 +20 1014.3 978.1 0.1
17 13.07 З 1 н/о в посл. час осадки н/о +15.2 +13.4 89 +16 +16 1015.5 978.9 0.8
18 13.07 Ю 1 н/о {ливн. осадки} н/о +15.4 +13.8 90 +16 +16 1015.6 979.0 +14.3 +20.6 11
19 13.07 штиль 0 н/о н/о +15.4 +13.7 90 +15 +15 1016.1 979.5
20 13.07 Ю 2 н/о н/о +15.4 +14.0 91 +15 +15 1016.3 979.7 0.0
21 13.07 Ю 1 н/о н/о +14.9 +13.2 90 +15 +15 1016.6 979.9 0.0
22 13.07 Ю 1 н/о н/о +14.8 +13.3 91 +15 +15 1016.6 979.9
23 13.07 Ю 1 н/о н/о +14.8 +13.4 91 +15 +15 1016.6 979.9
00 14.07 Ю 1 н/о н/о +14.8 +13.5 92 +15 +15 1016.3 979.6 0.0
01 14.07 Ю 1 н/о н/о +14.8 +13.6 93 +15 +15 1016.0 979.3
02 14.07 штиль 0 н/о н/о +14.8 +13.5 92 +14 +14 1015.6 978.9
03 14.07 Ю 1 н/о н/о +14.9 +13.5 91 +15 +15 1015.6 978.9
04 14.07 штиль 0 н/о н/о +14.9 +13.6 92 +15 +15 1015.8 979.1
05 14.07 ЮЗ 1 н/о н/о +15.1 +13.6 91 +16 +16 1015.7 979.0
06 14.07 штиль 0 н/о н/о +15.4 +13.6 89 +15 +15 1015.7 979.1 +14.7 +15.6 0.0
07 14.07 З 1 н/о н/о +15.7 +13.6 87 +16 +16 1015.9 979.3 0.0
08 14.07 З 1 н/о н/о +16.4 +13.6 84 +17 +17 1016.0 979.5
09 14.07 штиль 0 н/о н/о +17.6 +13.4 76 +18 +18 1015.5 979.2 0.0
10 14.07 СВ 1 н/о н/о +19.8 +12.9 64 +23 +23 комфорт 1014.9 978.8
11 14.07 СЗ 1 н/о н/о +21.0 +12.8 59 +25 +25 комфорт 1014.5 978.6 0.0
12 14.07 штиль 0 н/о в посл. час осадки н/о +19.7 +15.3 76 +22 +22 комфорт 1014.4 978.4 0.6
13 14.07 Ю 2 н/о в посл. час осадки н/о +20.9 +14.4 66 +24 +24 комфорт 1013.9 978.0 0.0
14 14.07 Ю 1 н/о в посл. час осадки н/о +19.3 +13.3 68 +22 +22 комфорт 1014.3 978.2 0.2
15 14.07 В 1 н/о осадки {ливн. осадки} н/о +18.7 +15.6 82 +21 +21 комфорт 1014.5 978.4 0.5
16 14.07 СЗ 1 н/о ливневой дождь н/о +17.3 +14.9 86 +18 +18 1015.0 978.7 0.6
17 14.07 ЮВ 1 н/о в посл. час осадки н/о +16.6 +13.9 84 +17 +17 1015.1 978.7 0.2
18 14.07 СВ 1 н/о {ливн. осадки} н/о +16.6 +13.8 84 +17 +17 1014.9 978.5 +15.3 +21.3 2
19 14.07 С 1 н/о н/о +16.0 +14.1 88 +17 +17 1015.4 978.9
20 14.07 СЗ 1 н/о н/о +15.0 +13.7 92 +15 +15 1015.7 979.0
21 14.07 С 1 н/о н/о +14.7 +13.7 94 +15 +15 1015.6 978.9
22 14.07 штиль 0 н/о н/о +13.9 +13.0 94 +13 +13 1015.9 979.1
23 14.07 С 1 н/о н/о +13.0 +12.4 96 +13 +13 1015.8 978.9
00 15.07 С 1 н/о н/о +12.5 +12.0 97 +12 +12 1015.9 978.9
01 15.07 СЗ 1 н/о н/о +12.0 +11.6 97 +12 +12 1015.9 978.8
02 15.07 СЗ 1 н/о н/о +12.0 +11.6 97 +12 +12 1015.8 978.7
03 15.07 СЗ 1 н/о н/о +11.9 +11.4 97 +12 +12 1015.7 978.6
04 15.07 штиль 0 н/о н/о +11.3 +10.8 97 +11 +11 1016.1 978.9
05 15.07 СВ 1 н/о н/о +11.6 +11.1 97 +11 +11 1016.1 979.0
06 15.07 С 3 н/о н/о +12.9 +12.2 96 +11 +11 1016.0 979.0 +11.2 +16.7
07 15.07 С 2 н/о н/о +15.5 +12.8 84 +15 +15 1015.5 978.9
08 15.07 СВ 2 н/о н/о +19.2 +12.2 64 +21 +21 комфорт 1014.9 978.8
09 15.07 Ю 1 н/о н/о +19.3 +12.7 66 +22 +22 комфорт 1015.0 978.9
10 15.07 ЮЗ 1 н/о н/о +19.9 +12.3 62 +23 +23 комфорт 1014.7 978.7
11 15.07 штиль 0 н/о н/о +21.4 +12.2 56 +24 +24 комфорт 1014.7 978.8
12 15.07 С 1 н/о н/о +21.8 +12.2 54 +24 +24 комфорт 1014.2 978.4
13 15.07 СЗ 1 н/о н/о +23.5 +11.7 47 +25 +25 комфорт 1013.7 978.1
14 15.07 Ю 2 н/о н/о +24.2 +11.9 46 +26 +26 жарко 1013.4 977.9
15 15.07 ЮВ 2 н/о н/о +21.2 +13.5 61 +24 +24 комфорт 1013.9 978.1
16 15.07 ЮЗ 1 н/о н/о +22.0 +11.8 52 +24 +24 комфорт 1013.6 977.8
17 15.07 СЗ 1 н/о осадки н/о +20.5 +14.7 69 +24 +24 комфорт 1013.9 978.0 0.2
18 15.07 СЗ 1 н/о {осадки} н/о +19.8 +14.8 73 +23 +23 комфорт 1013.8 977.8 +12.7 +24.7 0.2
19 15.07 С 1 н/о н/о +18.5 +14.8 79 +20 +20 1014.2 978.0
20 15.07 СЗ 2 н/о н/о +15.9 +13.9 88 +16 +16 1015.0 978.5
21 15.07 С 2 н/о н/о +14.8 +13.1 90 +14 +14 1015.4 978.7
22 15.07 С 1 н/о н/о +13.9 +12.5 91 +14 +14 1015.7 978.9
23 15.07 С 1 н/о н/о +13.6 +12.4 92 +14 +14 1015.9 979.0
00 16.07 С 1 н/о н/о +13.6 +12.4 92 +14 +14 1016.0 979.1 0.0
01 16.07 штиль 0 н/о н/о +13.0 +11.9 93 +12 +12 1015.9 979.0 0.0
02 16.07 СВ 1 н/о н/о +12.2 +11.1 93 +12 +12 1016.0 978.9
03 16.07 штиль 0 н/о н/о +11.8 +10.9 94 +11 +11 1016.1 979.0 0.0
04 16.07 штиль 0 н/о н/о +11.6 +10.6 94 +11 +11 1016.4 979.2
05 16.07 штиль 0 н/о н/о +12.6 +11.4 92 +12 +12 1016.6 979.6
06 16.07 ЮЗ 1 н/о н/о +13.9 +12.0 88 +14 +14 1016.8 979.9 +11.6 +20.6 0.0
07 16.07 Ю 1 н/о н/о +15.3 +12.7 84 +16 +16 1016.5 979.8 0.0
08 16.07 штиль 0 н/о н/о +17.2 +13.1 77 +17 +17 1016.3 979.9
09 16.07 Ю 1 н/о н/о +19.6 +13.4 67 +22 +22 комфорт 1015.6 979.5 0.0
10 16.07 З 2 н/о н/о +21.4 +12.6 57 +24 +24 комфорт 1015.1 979.2
11 16.07 З 2 н/о н/о +21.8 +11.3 51 +24 +24 комфорт 1014.9 979.1
12 16.07 З 2 н/о н/о +22.7 +10.9 47 +25 +25 комфорт 1014.7 979.0 0.0
13 16.07 З 2 н/о н/о +24.0 +10.6 43 +25 +25 комфорт 1014.3 978.7
14 16.07 З 2 н/о н/о +24.7 +10.2 40 +26 +26 жарко 1014.1 978.6
15 16.07 СЗ 2 н/о н/о +24.6 +10.1 40 +26 +26 жарко 1013.7 978.2
16 16.07 З 2 н/о н/о +25.0 +10.1 39 +26 +26 жарко 1013.3 977.9 0.0
17 16.07 СЗ 2 н/о н/о +24.9 +9.6 38 +26 +26 жарко 1013.3 977.9
18 16.07 СЗ 2 н/о н/о +23.9 +10.5 43 +25 +25 комфорт 1013.4 977.9 +13.7 +25.6 0.0
19 16.07 СЗ 1 н/о н/о +20.7 +13.5 63 +24 +24 комфорт 1014.0 978.1
20 16.07 С 1 н/о н/о +17.2 +13.5 79 +18 +18 1015.0 978.6
21 16.07 штиль 0 н/о н/о +15.6 +12.9 84 +15 +15 1015.4 978.8
22 16.07 С 1 н/о н/о +14.3 +11.9 85 +15 +15 1015.6 978.8
23 16.07 С 1 н/о н/о +13.4 +11.6 89 +14 +14 1016.0 979.1
00 17.07 С 1 н/о н/о +13.1 +11.4 89 +13 +13 1016.1 979.2
01 17.07 С 1 н/о н/о +12.2 +10.6 90 +12 +12 1016.1 979.0
02 17.07 СЗ 1 н/о н/о +12.0 +10.6 91 +12 +12 1015.8 978.7
03 17.07 С 1 н/о н/о +11.6 +10.3 92 +11 +11 1015.7 978.6
04 17.07 С 1 н/о н/о +11.2 +10.0 92 +11 +11 1015.6 978.4
05 17.07 штиль 0 н/о н/о +13.0 +10.7 86 +13 +13 1015.4 978.5
06 17.07 штиль 0 н/о н/о +14.9 +11.4 80 +15 +15 1015.2 978.5 +11.2 +24.1
07 17.07 ЮЗ 1 н/о н/о +16.8 +12.2 74 +18 +18 1014.6 978.2
08 17.07 ЮЗ 1 н/о н/о +19.1 +11.8 63 +21 +21 комфорт 1014.1 978.0
09 17.07 ЮЗ 1 н/о н/о +21.3 +12.2 56 +23 +23 комфорт 1013.5 977.7
10 17.07 ЮЗ 1 н/о н/о +23.1 +12.1 50 +26 +26 жарко 1012.9 977.3
11 17.07 штиль 0 н/о н/о +24.9 +12.6 46 +27 +27 жарко 1012.2 976.8
12 17.07 СЗ 1 н/о н/о +25.7 +11.0 40 +27 +27 жарко 1011.8 976.5
13 17.07 З 1 н/о н/о +26.3 +11.8 40 +28 +28 жарко 1011.2 976.0
14 17.07 СЗ 1 н/о н/о +27.1 +11.9 39 +28 +28 жарко 1010.8 975.7
15 17.07 ЮЗ 1 н/о н/о +26.4 +12.3 42 +28 +28 жарко 1010.5 975.4
16 17.07 штиль 0 н/о н/о +27.4 +11.5 37 +28 +28 жарко 1009.9 974.9
17 17.07 СЗ 1 н/о н/о +26.9 +12.1 40 +28 +28 жарко 1009.8 974.7
18 17.07 СЗ 1 н/о н/о +23.8 +13.8 53 +26 +26 жарко 1009.9 974.5 +14.6 +28.0
19 17.07 С 1 н/о н/о +21.0 +15.4 70 +25 +25 комфорт 1010.3 974.6
20 17.07 С 1 н/о н/о +18.9 +15.0 78 +21 +21 комфорт 1011.2 975.2
21 17.07 штиль 0 н/о н/о +17.3 +14.7 85 +17 +17 1011.5 975.3
22 17.07 С 1 н/о н/о +16.3 +14.1 87 +17 +17 1012.0 975.6
23 17.07 СЗ 1 н/о н/о +15.3 +13.4 88 +16 +16 1012.1 975.6
00 18.07 С 1 н/о н/о +14.8 +12.8 88 +15 +15 1012.1 975.5
01 18.07 Ю 1 н/о н/о +14.2 +12.7 91 +14 +14 1012.3 975.6
02 18.07 С 1 н/о н/о +13.6 +12.3 92 +14 +14 1012.3 975.6
03 18.07 С 1 н/о н/о +13.3 +12.1 92 +13 +13 1012.6 975.8
04 18.07 штиль 0 н/о н/о +12.9 +11.7 92 +12 +12 1013.1 976.2
05 18.07 С 1 н/о н/о +14.0 +12.3 89 +14 +14 1013.0 976.3 0.0
06 18.07 СЗ 1 н/о н/о +15.7 +12.8 83 +16 +16 1013.0 976.5 +12.8 +24.1 0.0
07 18.07 З 1 н/о н/о +18.0 +13.3 74 +19 +19 1012.8 976.6
08 18.07 Ю 1 н/о н/о +20.1 +12.8 63 +23 +23 комфорт 1012.6 976.7
09 18.07 З 1 н/о н/о +21.6 +12.9 58 +24 +24 комфорт 1012.6 976.8
10 18.07 ЮЗ 1 н/о н/о +23.8 +11.4 46 +25 +25 комфорт 1012.2 976.7
11 18.07 Ю 1 н/о н/о +25.1 +10.5 40 +26 +26 жарко 1011.9 976.5
12 18.07 СЗ 1 н/о н/о +25.8 +9.2 35 +26 +26 жарко 1011.6 976.3
13 18.07 СЗ 2 н/о н/о +27.0 +10.6 36 +28 +28 жарко 1011.3 976.2 0.0
14 18.07 З 1 н/о в посл. час осадки н/о +27.3 +10.1 34 +28 +28 жарко 1011.1 976.0 0.0
15 18.07 СЗ 1 н/о {осадки} н/о +28.1 +9.0 30 +28 +28 жарко 1010.7 975.7 0.0
16 18.07 СЗ 1 н/о н/о +27.7 +8.8 30 +28 +28 жарко 1010.5 975.5 0.0
17 18.07 штиль 0 н/о н/о +27.9 +9.7 32 +28 +28 жарко 1010.4 975.4
18 18.07 штиль 0 н/о {осадки} н/о +25.6 +12.2 43 +27 +27 жарко 1010.9 975.7 +15.5 +28.4 0.0
19 18.07 штиль 0 н/о н/о +21.2 +14.5 66 +24 +24 комфорт 1012.0 976.2
20 18.07 С 1 н/о н/о +19.4 +15.2 77 +22 +22 комфорт 1012.8 976.8
21 18.07 С 1 н/о н/о +17.5 +14.5 83 +19 +19 1013.3 977.0
22 18.07 штиль 0 н/о н/о +16.0 +13.3 84 +16 +16 1013.6 977.1
23 18.07 С 1 н/о н/о +15.6 +13.3 86 +16 +16 1014.0 977.5
00 19.07 С 1 н/о н/о +15.1 +13.1 88 +16 +16 1014.5 977.9
01 19.07 штиль 0 н/о н/о +14.8 +12.9 88 +14 +14 1014.7 978.0
02 19.07 С 1 н/о н/о +14.4 +12.7 90 +15 +15 1014.9 978.2
03 19.07 С 1 н/о н/о +14.0 +12.4 90 +14 +14 1015.3 978.5
04 19.07 штиль 0 н/о н/о +14.0 +12.3 89 +14 +14 1015.7 978.9
05 19.07 С 1 н/о н/о +14.8 +12.6 87 +15 +15 1016.0 979.3
06 19.07 ЮВ 1 н/о н/о +18.2 +13.3 73 +20 +20 1015.9 979.6 +13.8 +25.8
07 19.07 Ю 1 н/о н/о +18.6 +14.2 76 +20 +20 1015.9 979.7 0.0
08 19.07 Ю 1 н/о н/о +18.5 +14.5 78 +20 +20 1016.1 979.9 0.0
09 19.07 ЮЗ 1 н/о н/о +19.7 +13.0 65 +22 +22 комфорт 1016.3 980.2 0.0
10 19.07 СВ 1 н/о н/о +21.5 +12.3 56 +24 +24 комфорт 1016.0 980.1
11 19.07 З 1 н/о н/о +23.3 +13.0 52 +26 +26 жарко 1015.7 980.0
12 19.07 ЮЗ 1 н/о н/о +24.5 +12.9 48 +26 +26 жарко 1015.2 979.7 0.0
13 19.07 З 1 н/о н/о +25.7 +13.4 47 +28 +28 жарко 1014.6 979.3
14 19.07 ЮЗ 1 н/о н/о +26.6 +12.7 42 +28 +28 жарко 1014.1 978.9
15 19.07 З 1 н/о н/о +26.5 +13.7 45 +29 +29 жарко 1013.9 978.7
16 19.07 ЮЗ 1 н/о н/о +26.2 +12.2 42 +28 +28 жарко 1013.8 978.5
17 19.07 штиль 0 н/о н/о +24.6 +14.5 53 +27 +27 жарко 1013.6 978.2
18 19.07 штиль 0 н/о н/о +24.1 +16.1 61 +27 +27 жарко 1013.9 978.4 +17.5 +27.6 0.0

 

Местоположение метеостанции Шердинг (Австрия): широта 48.47 долгота 13.43 высота над уровнем моря 318 м.

В архиве по умолчанию представлена погода в Шердинге за последнюю неделю. Архивные данные за месяц целиком и за предыдущие месяцы, начиная с января 2011 года, Вы можете получить, выбрав интересующий диапазон дат из раскрывающегося списка и нажав кнопку "Ввод!".


*Определитесь, кто Вы:
робот инопланетянин человек

Внимание! Время в таблицах - всемирное. Для получения местного времени необходимо прибавить поправку, которая равна 1 ч.

Смотрите также архив погоды в соседних городах и на ближайших метеорологических станциях:

Погода в Фюрстенцелле (Германия) (11 км)
Погода в Рид-им-Иннкрайсе (Австрия) (28 км)
Погода в Рансхофене (Австрия) (41 км)
Погода в Рорбахе (Австрия) (43 км)
Погода в Вольфсегг-ам-Хаусрукке (Австрия) (45 км)
Погода в Франкенмаркте (Австрия) (53 км)
Погода в Вельс / Шлайсхайм (Австрия) (58 км)
Погода в Маттзе (Австрия) (60 км)
Погода в Линце (Австрия) (62 км)
Погода в Цвизеле (Германия) (64 км)

Пояснения к столбцам:

Ветер - указаны скорость ветра в м/с - средняя за 10 мин, порывы в срок и между сроками (в фигурных скобках) и направление, откуда дует ветер: С - северный, СВ - северо-восточный, В - восточный, ЮВ - юго-восточный, Ю - южный, ЮЗ - юго-западный, З - западный, СЗ - северо-западный.
Видимость - горизонтальная дальность видимости в метрах или километрах. При видимости от 1 до 10 км при отсутствии осадков обычно наблюдается дымка, при ухудшении видимости до 1 км и менее - туман. В сухую погоду видимость может ухудшаться дымом, пылью или мглою.
Явления - указаны атмосферные явления, наблюдавшиеся в срок или в последний час перед сроком; фигурными скобками обозначены явления, наблюдавшиеся между сроками (за 1-3 часа до срока); квадратными скобками обозначены град или гололедные отложения с указанием их диаметра в мм.
Облачность - указаны через наклонную черту общая и нижняя облачность в баллах и высота нижней границы облаков в метрах; квадратными скобками обозначены формы облаков: Ci - перистые, Cs - перисто-слоистые, Cc - перисто-кучевые, Ac - высококучевые, As - высокослоистые, Sc - слоисто-кучевые, Ns - слоисто-дождевые, Cu - кучевые, Cb - кучево-дождевые. Подробнее классификацию облаков см. в Атласе облаков (PDF).
T - Температура воздуха - температура, измеренная на высоте 2 м над землей.
Td - Температура точки росы - температура, при понижении до которой содержащийся в воздухе водяной пар достигнет насыщения.
f - Относительная влажность воздуха - влажноcть воздуха, измеренная на высоте 2 м над землей.
Te - Эффективная температура - температура, которую ощущает одетый по сезону человек в тени. Характеристика душности погоды. При расчете учитывается влияние влажности воздуха и скорости ветра на теплоощущения человека.
Tes - Эффективная температура на солнце - температура, которую ощущает человек, с поправкой на солнечный нагрев. Характеристика знойности погоды. Зависит от высоты солнца над горизонтом, облачности и скорости ветра. Ночью, в пасмурную погоду, а также при ветре 12 м/с и более поправка равна нулю.
P - Атмосферное давление - приведенное к уровню моря атмосферное давление.
Po - Атмосферное давление - измеренное на уровне метеостанции атмосферное давление.
Tmin - Минимальная температура - минимум температуры воздуха на высоте 2 м над землей.
Tmax - Максимальная температура - максимум температуры воздуха на высоте 2 м над землей.
R - Количество осадков - Количество выпавших осадков за период времени, мм. При наведении курсора мыши на число - период времени, за который выпало указанное количество осадков.
R24 - Количество осадков - Количество выпавших осадков за 24 часа, мм.
S - Снежный покров - Высота снежного покрова, см. При наведении курсора мыши на число - состояние снежного покрова и степень покрытия местности в баллах.